Location: Sommers-Bausch Observatory
(40.0037°N, 105.2635°W)
Time: 21:35:55
(UTC-06:00)

Amateur Radio Satellites - All Passes

Search period start: 27 June 2017 21:05
Search period end: 28 June 2017 21:05
Location: Sommers-Bausch Observatory, 40.0037°N, 105.2635°W

Satellite Date Start Highest point End Downlink Frequencies (MHz)
Time Altitude Azimuth
STRAND 1 27 Jun 21:10:14 21:15:07 44° 290° (WNW) 21:19:58 437.568
FO-29 27 Jun 21:12:58 21:17:32 16° 86° (E) 21:21:59 435.910
DELFI C3 27 Jun 21:13:39 21:17:00 27° 70° (ENE) 21:20:21 145.870
NO-84 27 Jun 21:14:58 21:18:45 73° 134° (SE) 21:22:52 435.350 FM
HO-68 27 Jun 21:18:15 21:22:43 17° 270° (W) 21:27:11 435.675
BEESAT 2 27 Jun 21:19:32 21:23:28 67° 119° (ESE) 21:27:29 435.950
SO-50 27 Jun 21:23:14 21:25:19 13° 39° (NE) 21:27:26 436.795
EO-88 27 Jun 21:35:07 21:38:24 31° 72° (ENE) 21:41:41 145.990 - 145.960
YUBILEINY 27 Jun 21:38:39 21:47:00 50° 89° (E) 21:55:24 435.215
AO-73 27 Jun 21:41:48 21:45:40 27° 265° (W) 21:49:34 145.935
AO-85 27 Jun 21:47:46 21:50:16 16° 315° (NW) 21:52:44 145.980
AAUSAT CUBESAT 2 27 Jun 21:48:06 21:48:53 10° 270° (W) 21:49:40 437.432
UNISAT 6 27 Jun 21:51:02 21:53:16 13° 90° (E) 21:55:27 437.425
PRISM 27 Jun 21:51:22 21:52:31 11° 91° (E) 21:53:40 437.425
BEESAT 3 27 Jun 21:53:28 21:56:31 21° 313° (NW) 21:59:38 437.485
Oscar 11 27 Jun 22:06:58 22:09:57 18° 267° (W) 22:12:58 .
RS-15 27 Jun 22:13:05 22:25:05 61° 309° (NW) 22:37:22 29.354- 29.394
PCSat 27 Jun 22:17:30 22:22:06 29° 252° (WSW) 22:26:40 145.827
O/OREOS (USA 219) 27 Jun 22:40:27 22:43:54 21° 302° (WNW) 22:47:21 437.305
TIGRISAT 27 Jun 22:42:54 22:47:22 45° 98° (E) 22:51:41 435.000
DELFI C3 27 Jun 22:48:51 22:51:46 20° 266° (W) 22:54:40 145.870
M-CUBED/EXP-1 PRIME 27 Jun 22:50:07 22:53:57 77° 109° (ESE) 22:58:04 437.505
NO-84 27 Jun 22:53:35 22:56:45 22° 334° (NNW) 23:00:04 435.350 FM
FO-29 27 Jun 22:55:32 23:03:28 85° 103° (ESE) 23:11:10 435.910
BEESAT 2 27 Jun 22:59:30 23:01:39 14° 317° (NW) 23:03:50 435.950
SO-50 27 Jun 23:01:55 23:06:28 86° 58° (ENE) 23:11:01 436.795
EO-88 27 Jun 23:09:56 23:12:09 15° 267° (W) 23:14:22 145.990 - 145.960
ESTCUBE 1 27 Jun 23:11:58 23:16:10 40° 71° (ENE) 23:20:22 437.505/2401.250
LO-87 27 Jun 23:22:15 23:25:49 88° 260° (W) 23:29:25 145.935 - 145.965
PRISM 27 Jun 23:24:04 23:28:07 56° 286° (WNW) 23:32:08 437.425
UNISAT 6 27 Jun 23:25:46 23:30:20 57° 286° (WNW) 23:34:47 437.425
YUBILEINY 27 Jun 23:36:10 23:44:00 35° 289° (WNW) 23:51:57 435.215
POLYITAN 1 27 Jun 23:44:12 23:45:59 12° 91° (E) 23:47:44 437.675
QB50P2 27 Jun 23:54:11 23:57:07 18° 93° (E) 00:00:03 145.880/145.840
AIST 2D 28 Jun 00:12:30 00:15:58 61° 100° (E) 00:19:24 435.315
EO-79 28 Jun 00:17:05 00:20:50 29° 96° (E) 00:24:33 145.935-145.965
TIGRISAT 28 Jun 00:20:31 00:23:39 18° 295° (WNW) 00:26:45 435.000
50 SAT 28 Jun 00:21:25 00:23:53 19° 69° (ENE) 00:26:21 437.505
DUCHIFAT 1 28 Jun 00:27:47 00:31:35 31° 97° (E) 00:35:20 145.980
RS-15 28 Jun 00:31:21 00:40:58 25° 339° (NNW) 00:50:35 29.354- 29.394
NO-84 28 Jun 00:34:31 00:35:43 11° 355° (N) 00:36:55 435.350 FM
NANOSAT C BR1 28 Jun 00:37:34 00:41:41 45° 99° (E) 00:45:45 145.865
VELOX 1 28 Jun 00:38:04 00:42:26 83° 77° (ENE) 00:46:50 145.980
SPROUT 28 Jun 00:38:46 00:43:02 89° 253° (WSW) 00:47:21 437.525
FO-29 28 Jun 00:41:56 00:47:29 22° 302° (WNW) 00:53:02 435.910
DX 1 28 Jun 00:49:22 00:53:17 35° 70° (ENE) 00:57:13 434.975-435.025
ESTCUBE 1 28 Jun 00:50:01 00:53:06 18° 267° (W) 00:56:13 437.505/2401.250
UKube-1 28 Jun 01:01:02 01:04:49 31° 70° (ENE) 01:08:38 .
POLYITAN 1 28 Jun 01:17:53 01:22:04 54° 286° (WNW) 01:26:12 437.675
BUGSAT 1 28 Jun 01:26:45 01:30:48 42° 99° (E) 01:34:48 437.445
QB50P2 28 Jun 01:29:05 01:33:02 37° 289° (WNW) 01:36:56 145.880/145.840
Gurwin Techsat 1B 28 Jun 01:47:46 01:51:13 17° 92° (E) 01:54:39 435.225
ITUPSAT 1 28 Jun 01:48:24 01:49:42 11° 60° (ENE) 01:51:01 437.325
EO-79 28 Jun 01:53:03 01:56:26 23° 292° (WNW) 01:59:47 145.935-145.965
50 SAT 28 Jun 01:53:58 01:56:34 20° 265° (W) 01:59:10 437.505
BEESAT 28 Jun 01:55:26 01:57:43 13° 61° (ENE) 02:00:00 436.000
DUCHIFAT 1 28 Jun 02:03:48 02:07:03 22° 293° (WNW) 02:10:17 145.980
Oscar 19 28 Jun 02:10:44 02:15:39 46° 99° (E) 02:20:33 437.125/150
NO-84 28 Jun 02:12:31 02:14:54 14° 16° (NNE) 02:17:18 435.350 FM
NANOSAT C BR1 28 Jun 02:14:28 02:17:00 16° 295° (WNW) 02:19:31 145.865
DX 1 28 Jun 02:26:24 02:29:32 19° 266° (W) 02:32:41 434.975-435.025
UKube-1 28 Jun 02:37:34 02:40:52 21° 265° (W) 02:44:11 .
MOZHAYETS 4 28 Jun 02:37:41 02:41:10 21° 67° (ENE) 02:44:40
RS-15 28 Jun 02:50:21 02:59:33 23° 15° (NNE) 03:08:31 29.354- 29.394
BUGSAT 1 28 Jun 03:03:06 03:05:47 17° 295° (WNW) 03:08:28 437.445
ITUPSAT 1 28 Jun 03:21:59 03:26:48 85° 254° (WSW) 03:31:38 437.325
Gurwin Techsat 1B 28 Jun 03:26:17 03:31:31 57° 288° (WNW) 03:36:42 435.225
CUBESAT XI-V 28 Jun 03:27:35 03:29:46 13° 63° (ENE) 03:31:57 437.345
BEESAT 28 Jun 03:30:08 03:34:53 69° 258° (WSW) 03:39:41 436.000
NO-84 28 Jun 03:49:17 03:53:29 42° 36° (NE) 03:57:36 435.350 FM
Oscar 19 28 Jun 03:50:49 03:54:38 21° 296° (WNW) 03:58:27 437.125/150
KKS-1 28 Jun 03:51:51 03:54:32 16° 64° (ENE) 03:57:14 437.445
AO-7 28 Jun 04:07:12 04:15:12 47° 101° (E) 04:23:08 .
MOZHAYETS 4 28 Jun 04:13:46 04:18:04 38° 262° (W) 04:22:24
STARS 28 Jun 04:14:49 04:16:20 12° 62° (ENE) 04:17:52 437.465
BEESAT 3 28 Jun 04:32:46 04:35:47 20° 47° (NE) 04:38:47 437.485
ITAMSAT 1 28 Jun 04:33:19 04:38:35 79° 104° (ESE) 04:43:48 435.822/435.867
AO-85 28 Jun 04:36:50 04:40:39 36° 53° (NE) 04:44:42 145.980
CUBESAT XI-V 28 Jun 05:01:59 05:06:35 64° 259° (W) 05:11:11 437.345
RS-15 28 Jun 05:04:03 05:15:56 52° 47° (NE) 05:27:11 29.354- 29.394
KKS-1 28 Jun 05:26:24 05:30:40 48° 260° (W) 05:34:59 437.445
NO-84 28 Jun 05:27:09 05:30:58 29° 233° (SW) 05:34:39 435.350 FM
BEESAT 2 28 Jun 05:37:54 05:41:35 32° 51° (NE) 05:45:13 435.950
STARS 28 Jun 05:47:43 05:52:04 69° 257° (WSW) 05:56:28 437.465
CUTE-I 28 Jun 05:59:58 06:01:58 12° 89° (E) 06:03:58 437.470
AO-7 28 Jun 06:00:11 06:07:48 41° 299° (WNW) 06:15:24 .
BEESAT 3 28 Jun 06:09:46 06:13:31 38° 244° (WSW) 06:17:10 437.485
ITAMSAT 1 28 Jun 06:14:50 06:17:20 14° 300° (WNW) 06:19:50 435.822/435.867
DOVE 4 28 Jun 06:17:25 06:22:16 48° 99° (E) 06:27:18 437.250
AO-85 28 Jun 06:17:39 06:20:52 21° 247° (WSW) 06:24:13 145.980
Tancredo 1 28 Jun 06:22:40 06:24:38 16° 132° (SE) 06:26:39 437.200
NUDT-PHONESAT 28 Jun 06:33:34 06:36:15 19° 94° (E) 06:38:54 437.300
STRAND 1 28 Jun 06:46:57 06:51:19 29° 67° (ENE) 06:55:44 437.568
XW-2F 28 Jun 06:57:43 07:01:22 50° 100° (E) 07:04:59 145.980 - 146.000
HO-68 28 Jun 06:57:48 07:01:41 15° 89° (E) 07:05:33 435.675
XW-2D 28 Jun 07:03:46 07:07:32 67° 100° (E) 07:11:14 145.860 - 145.880
O/OREOS (USA 219) 28 Jun 07:10:27 07:14:56 67° 68° (ENE) 07:19:22 437.305
XW-2B 28 Jun 07:12:52 07:16:38 85° 102° (ESE) 07:20:22 145.730 - 145.750
LilacSat-2 28 Jun 07:15:44 07:19:32 82° 282° (WNW) 07:23:17 437.200
BEESAT 2 28 Jun 07:15:59 07:19:09 22° 248° (WSW) 07:22:18 435.950
ISS 28 Jun 07:16:12 07:19:04 29° 135° (SE) 07:21:58 437.550
RS-15 28 Jun 07:17:02 07:28:22 50° 250° (WSW) 07:39:09 29.354- 29.394
XW-2C 28 Jun 07:28:34 07:32:17 58° 285° (WNW) 07:35:57 145.795 - 145.815
CUTE 1.7 + AOD 2 28 Jun 07:33:34 07:36:44 20° 94° (E) 07:39:53 437.475
KAITUO 1B 28 Jun 07:35:13 07:38:53 63° 284° (WNW) 07:42:31 145.475/437.950
CUTE-I 28 Jun 07:37:12 07:42:36 80° 285° (WNW) 07:47:58 437.470
YUBILEINY 28 Jun 07:50:13 07:57:00 24° 66° (ENE) 08:03:43 435.215
DOVE 4 28 Jun 07:55:59 07:59:37 21° 294° (WNW) 08:03:21 437.250
Tancredo 1 28 Jun 07:57:04 07:59:58 44° 327° (NNW) 08:02:54 437.200
NUDT-PHONESAT 28 Jun 08:07:03 08:10:07 25° 290° (WNW) 08:13:10 437.300
XW-2A 28 Jun 08:09:17 08:12:25 34° 98° (E) 08:15:31 145.665 - 145.685
CUBEBUG 2 28 Jun 08:15:27 08:19:40 33° 96° (E) 08:23:46 437.445
STRAND 1 28 Jun 08:25:47 08:30:23 33° 263° (W) 08:35:01 437.568
ZACube-1 28 Jun 08:31:53 08:34:29 15° 91° (E) 08:37:03 437.345
XW-2F 28 Jun 08:34:03 08:35:02 11° 295° (WNW) 08:36:01 145.980 - 146.000
UWE-3 28 Jun 08:42:41 08:46:55 37° 97° (E) 08:51:01 435.000/436.395/437.385
HO-68 28 Jun 08:43:02 08:50:15 89° 289° (WNW) 08:57:25 435.675
SEEDS 28 Jun 08:45:05 08:49:15 88° 90° (E) 08:53:25 437.485
UNISAT 6 28 Jun 08:49:51 08:51:40 12° 62° (ENE) 08:53:30 437.425
ISS 28 Jun 08:52:31 08:55:30 32° 331° (NNW) 08:58:31 437.550
O/OREOS (USA 219) 28 Jun 08:52:48 08:53:41 10° 263° (W) 08:54:34 437.305
FO-29 28 Jun 09:07:10 09:12:45 35° 64° (ENE) 09:18:58 435.910
CUTE 1.7 + AOD 2 28 Jun 09:08:53 09:12:36 31° 289° (WNW) 09:16:17 437.475
CUTE-I 28 Jun 09:20:27 09:21:44 11° 303° (WNW) 09:23:02 437.470
AAUSAT CUBESAT 2 28 Jun 09:26:50 09:30:55 66° 285° (WNW) 09:35:00 437.432
AO-73 28 Jun 09:29:42 09:34:05 61° 101° (E) 09:38:18 145.935
Tancredo 1 28 Jun 09:34:47 09:36:08 12° 346° (NNW) 09:37:30 437.200
M-CUBED/EXP-1 PRIME 28 Jun 09:36:05 09:39:21 85° 74° (ENE) 09:42:37 437.505
TIGRISAT 28 Jun 09:40:29 09:44:42 36° 71° (ENE) 09:49:00 435.000
XW-2A 28 Jun 09:43:22 09:44:48 12° 294° (WNW) 09:46:15 145.665 - 145.685
YUBILEINY 28 Jun 09:45:51 09:54:40 74° 266° (W) 10:03:23 435.215
CUBEBUG 2 28 Jun 09:52:19 09:56:05 24° 293° (WNW) 09:59:45 437.445
Oscar 11 28 Jun 09:53:03 09:57:22 86° 101° (E) 10:01:40 .
ZACube-1 28 Jun 10:06:47 10:11:01 45° 287° (WNW) 10:15:08 437.345
PRISM 28 Jun 10:12:09 10:16:12 90° 288° (WNW) 10:20:17 437.425
UWE-3 28 Jun 10:19:43 10:23:04 20° 294° (WNW) 10:26:21 435.000/436.395/437.385
UNISAT 6 28 Jun 10:23:06 10:27:42 73° 258° (WSW) 10:32:25 437.425
DELFI C3 28 Jun 10:25:06 10:28:56 49° 99° (E) 10:32:47 145.870
ISS 28 Jun 10:31:20 10:32:46 12° 351° (N) 10:34:13 437.550
HO-68 28 Jun 10:32:34 10:37:00 18° 305° (NW) 10:41:24 435.675
EO-88 28 Jun 10:37:37 10:41:08 44° 99° (E) 10:44:36 145.990 - 145.960
AIST 2D 28 Jun 10:46:38 10:49:17 20° 70° (ENE) 10:51:56 435.315
QB50P2 28 Jun 10:47:03 10:49:07 13° 64° (ENE) 10:51:12 145.880/145.840
FO-29 28 Jun 10:51:56 10:57:38 40° 265° (W) 11:04:05 435.910
AO-73 28 Jun 11:07:52 11:09:43 12° 297° (WNW) 11:11:33 145.935
EO-79 28 Jun 11:09:06 11:12:17 21° 67° (ENE) 11:15:30 145.935-145.965
Tancredo 1 28 Jun 11:12:35 11:12:48 10° 7° (N) 11:13:02 437.200
PCSat 28 Jun 11:14:43 11:19:44 40° 111° (ESE) 11:24:46 145.827
TIGRISAT 28 Jun 11:17:55 11:21:28 22° 267° (W) 11:25:04 435.000
DUCHIFAT 1 28 Jun 11:19:07 11:22:22 22° 67° (ENE) 11:25:38 145.980
NANOSAT C BR1 28 Jun 11:28:52 11:32:36 31° 70° (ENE) 11:36:21 145.865
YUBILEINY 28 Jun 11:46:27 11:49:46 13° 286° (WNW) 11:53:06 435.215
DELFI C3 28 Jun 12:01:35 12:03:17 12° 295° (WNW) 12:04:57 145.870
ISS 28 Jun 12:08:45 12:10:23 13° 11° (NNE) 12:12:01 437.550
POLYITAN 1 28 Jun 12:09:04 12:13:20 82° 256° (WSW) 12:17:39 437.675
EO-88 28 Jun 12:13:08 12:14:23 11° 295° (WNW) 12:15:38 145.990 - 145.960
BUGSAT 1 28 Jun 12:15:48 12:19:18 27° 69° (ENE) 12:22:51 437.445
AIST 2D 28 Jun 12:19:31 12:22:21 22° 265° (W) 12:25:12 435.315
QB50P2 28 Jun 12:20:15 12:24:25 55° 260° (W) 12:28:38 145.880/145.840
LO-87 28 Jun 12:23:01 12:26:37 62° 285° (WNW) 12:30:12 145.935 - 145.965
SPROUT 28 Jun 12:26:11 12:28:54 16° 92° (E) 12:31:36 437.525
VELOX 1 28 Jun 12:29:45 12:32:34 16° 93° (E) 12:35:21 145.980
ESTCUBE 1 28 Jun 12:41:13 12:45:43 83° 284° (WNW) 12:50:12 437.505/2401.250
EO-79 28 Jun 12:44:00 12:47:50 32° 263° (W) 12:51:42 145.935-145.965
Tancredo 1 28 Jun 12:46:40 12:49:13 24° 26° (NNE) 12:51:46 437.200
DUCHIFAT 1 28 Jun 12:54:04 12:57:50 31° 263° (W) 13:01:38 145.980
PCSat 28 Jun 12:58:28 13:03:12 30° 309° (NW) 13:07:58 145.827
NANOSAT C BR1 28 Jun 13:05:03 13:08:19 21° 266° (W) 13:11:36 145.865
Gurwin Techsat 1B 28 Jun 13:07:54 13:12:17 27° 66° (ENE) 13:16:40 435.225
SO-50 28 Jun 13:15:45 13:19:46 31° 114° (ESE) 13:23:46 436.795
50 SAT 28 Jun 13:16:28 13:19:07 21° 96° (E) 13:21:45 437.505
AO-7 28 Jun 13:18:40 13:22:14 13° 45° (NE) 13:25:50 .
Oscar 19 28 Jun 13:26:45 13:31:50 63° 73° (ENE) 13:36:56 437.125/150
ISS 28 Jun 13:44:28 13:47:35 38° 31° (NNE) 13:50:41 437.550
BUGSAT 1 28 Jun 13:51:14 13:54:36 24° 265° (W) 13:58:00 437.445
SPROUT 28 Jun 14:00:55 14:04:59 41° 288° (WNW) 14:09:00 437.525
VELOX 1 28 Jun 14:04:59 14:09:12 44° 288° (WNW) 14:13:24 145.980
DX 1 28 Jun 14:13:32 14:17:55 73° 103° (ESE) 14:22:17 434.975-435.025
ITAMSAT 1 28 Jun 14:14:09 14:16:57 15° 60° (ENE) 14:19:45 435.822/435.867
Tancredo 1 28 Jun 14:22:00 14:24:52 38° 223° (SW) 14:27:43 437.200
UKube-1 28 Jun 14:23:48 14:28:06 63° 102° (ESE) 14:32:23 .
Gurwin Techsat 1B 28 Jun 14:47:07 14:52:01 38° 262° (W) 14:56:58 435.225
50 SAT 28 Jun 14:49:15 14:51:47 20° 291° (WNW) 14:54:19 437.505
SO-50 28 Jun 14:56:12 15:00:11 29° 311° (NW) 15:04:10 436.795
AO-7 28 Jun 15:05:10 15:13:17 60° 66° (ENE) 15:21:26 .
Oscar 19 28 Jun 15:08:44 15:11:33 15° 269° (W) 15:14:23 437.125/150
ISS 28 Jun 15:21:14 15:23:55 23° 227° (SW) 15:26:37 437.550
ITUPSAT 1 28 Jun 15:23:39 15:27:36 25° 95° (E) 15:31:32 437.325
BEESAT 28 Jun 15:31:08 15:35:22 31° 97° (E) 15:39:33 436.000
ITAMSAT 1 28 Jun 15:50:34 15:55:46 73° 257° (WSW) 16:01:00 435.822/435.867
DX 1 28 Jun 15:52:21 15:53:28 11° 299° (WNW) 15:54:35 434.975-435.025
UKube-1 28 Jun 16:01:50 16:03:35 12° 298° (WNW) 16:05:19 .
MOZHAYETS 4 28 Jun 16:08:59 16:13:27 51° 100° (E) 16:17:53
CUBESAT XI-V 28 Jun 16:59:16 17:03:23 32° 96° (E) 17:07:30 437.345
AO-7 28 Jun 16:59:24 17:06:24 30° 264° (W) 17:13:31 .
ITUPSAT 1 28 Jun 17:01:10 17:05:26 33° 291° (WNW) 17:09:41 437.325
BEESAT 28 Jun 17:09:00 17:13:00 27° 293° (WNW) 17:16:59 436.000
KKS-1 28 Jun 17:17:54 17:21:56 32° 97° (E) 17:25:56 437.445
CUTE-I 28 Jun 17:20:17 17:24:06 20° 63° (ENE) 17:27:56 437.470
DOVE 4 28 Jun 17:22:47 17:26:39 38° 71° (ENE) 17:30:41 437.250
HO-68 28 Jun 17:28:27 17:31:03 12° 51° (NE) 17:33:38 435.675
STARS 28 Jun 17:38:12 17:41:41 22° 95° (E) 17:45:08 437.465
XW-2F 28 Jun 17:38:12 17:41:12 22° 70° (ENE) 17:44:13 145.980 - 146.000
XW-2D 28 Jun 17:44:21 17:47:40 28° 71° (ENE) 17:50:59 145.860 - 145.880
MOZHAYETS 4 28 Jun 17:47:24 17:50:10 16° 296° (WNW) 17:52:55
XW-2B 28 Jun 17:53:14 17:56:44 35° 72° (ENE) 18:00:15 145.730 - 145.750
LilacSat-2 28 Jun 17:56:36 18:00:14 41° 73° (ENE) 18:03:53 437.200
XW-2C 28 Jun 18:08:36 18:12:22 56° 75° (ENE) 18:16:08 145.795 - 145.815
KAITUO 1B 28 Jun 18:14:03 18:17:42 49° 74° (ENE) 18:21:21 145.475/437.950
CUTE 1.7 + AOD 2 28 Jun 18:26:27 18:28:45 15° 65° (ENE) 18:31:04 437.475
CUBESAT XI-V 28 Jun 18:36:55 18:40:36 24° 292° (WNW) 18:44:17 437.345
XW-2A 28 Jun 18:41:35 18:42:50 12° 66° (ENE) 18:44:05 145.665 - 145.685
NUDT-PHONESAT 28 Jun 18:44:32 18:48:16 65° 260° (W) 18:52:01 437.300
AO-85 28 Jun 18:53:18 18:54:51 12° 110° (ESE) 18:56:22 145.980
KKS-1 28 Jun 18:54:44 18:58:18 24° 293° (WNW) 19:01:51 437.445
CUTE-I 28 Jun 18:58:32 19:03:43 52° 260° (W) 19:08:57 437.470
DOVE 4 28 Jun 19:01:55 19:04:33 16° 269° (W) 19:07:16 437.250
HO-68 28 Jun 19:10:18 19:17:23 64° 70° (ENE) 19:24:30 435.675
XW-2F 28 Jun 19:12:07 19:15:14 23° 265° (W) 19:18:21 145.980 - 146.000
CUBEBUG 2 28 Jun 19:12:38 19:16:28 26° 68° (ENE) 19:20:22 437.445
STARS 28 Jun 19:14:04 19:18:02 32° 290° (WNW) 19:21:59 437.465
XW-2D 28 Jun 19:19:08 19:21:51 18° 266° (W) 19:24:35 145.860 - 145.880
RS-15 28 Jun 19:27:21 19:37:24 32° 103° (ESE) 19:47:37 29.354- 29.394
ZACube-1 28 Jun 19:27:39 19:29:41 13° 63° (ENE) 19:31:44 437.345
XW-2B 28 Jun 19:28:46 19:31:02 15° 267° (W) 19:33:17 145.730 - 145.750
LilacSat-2 28 Jun 19:32:54 19:34:42 13° 268° (W) 19:36:30 437.200
SEEDS 28 Jun 19:35:38 19:39:43 53° 74° (ENE) 19:43:48 437.485
UWE-3 28 Jun 19:38:36 19:42:35 29° 69° (ENE) 19:46:36 435.000/436.395/437.385
KAITUO 1B 28 Jun 19:51:20 19:51:58 10° 269° (W) 19:52:36 145.475/437.950
BEESAT 3 28 Jun 19:58:22 20:02:01 37° 115° (ESE) 20:05:44 437.485
CUTE 1.7 + AOD 2 28 Jun 20:00:04 20:04:10 48° 261° (W) 20:08:17 437.475
PCSat 28 Jun 20:03:07 20:07:52 30° 51° (NE) 20:12:35 145.827
XW-2A 28 Jun 20:11:58 20:15:12 38° 262° (W) 20:18:27 145.665 - 145.685
AAUSAT CUBESAT 2 28 Jun 20:15:42 20:19:48 71° 75° (ENE) 20:23:54 437.432
AO-73 28 Jun 20:23:49 20:28:08 44° 72° (ENE) 20:32:29 145.935
AO-85 28 Jun 20:30:47 20:34:47 55° 305° (NW) 20:38:40 145.980
STRAND 1 28 Jun 20:36:10 20:41:22 89° 105° (ESE) 20:46:30 437.568
NO-84 28 Jun 20:42:31 20:46:12 56° 132° (SE) 20:50:12 435.350 FM
Oscar 11 28 Jun 20:46:41 20:50:57 59° 75° (ENE) 20:55:14 .
CUBEBUG 2 28 Jun 20:48:49 20:52:54 31° 264° (W) 20:57:07 437.445
YUBILEINY 28 Jun 20:51:02 20:57:59 27° 82° (E) 21:04:59 435.215
